Sunlight Mountain, CO

2:35 AM MDT on March 26, 2017 (GMT -0600)
Sunlight Mountain

Weather History for K5SM - February, 2014

Change the Weather History Date:

Tuesday, February 18, 2014

  Actual Average (KRIL) Record (KRIL)
Temperature  
Mean Temperature 29 °F -  
Max Temperature 35 °F 45 °F 61 °F (1977)
Min Temperature 23 °F 19 °F -24 °F (1942)
Degree Days  
Heating Degree Days 36    
Moisture  
Dew Point 13 °F    
Average Humidity 51    
Maximum Humidity 64    
Minimum Humidity 40    
Precipitation  
Precipitation 0.00 in - - ()
Sea Level Pressure  
Sea Level Pressure 30.11 in    
Wind  
Wind Speed 1 mph (SSW)    
Max Wind Speed 6 mph    
Max Gust Speed -    
Visibility 10 miles    
Events      
Averages and records for this station are not official NWS values.
T = Trace of Precipitation, MM = Missing Value Source: NWS Daily Summary

Daily Weather History Graph

Daily Weather History Graph

Search for Another Location

Airport or City:

Trip Planner

Search our weather history database for the weather conditions in past years. The results will help you decide how hot, cold, wet, or windy it might be!

Date:

Astronomy

Feb. 18, 2014 Rise Set
Actual Time 6:57 AM MST 5:49 PM MST
Civil Twilight 6:30 AM MST 6:17 PM MST
Nautical Twilight 5:58 AM MST 6:48 PM MST
Astronomical Twilight 5:27 AM MST 7:19 PM MST
Moon 9:44 PM MST (2/18) 8:32 AM MST (2/18)
Length of Visible Light 11h 46m
Length of Day
10h 52m
Waning Gibbous, 87% of the Moon is Illuminated
Feb 18
Waning Gibbous
Feb 22
Last Quarter
Mar 1
New
Mar 8
First Quarter
Mar 16
Full

Hourly Weather History & Observations

Time (MST) Temp. Windchill Dew Point Humidity Pressure Visibility Wind Dir Wind Speed Gust Speed Precip Events Conditions
12:04 AM 26.6 °F - 10.4 °F 51% 30.09 in 10.0 mi Calm Calm - N/A   Clear
12:24 AM 26.6 °F - 10.4 °F 51% 30.08 in 10.0 mi Calm Calm - N/A   Clear
12:44 AM 26.6 °F - 10.4 °F 51% 30.07 in 10.0 mi Calm Calm - N/A   Clear
1:04 AM 26.6 °F - 10.4 °F 51% 30.07 in 10.0 mi Calm Calm - N/A   Clear
1:24 AM 24.8 °F - 12.2 °F 59% 30.06 in 10.0 mi Calm Calm - N/A   Clear
1:44 AM 26.6 °F - 10.4 °F 51% 30.07 in 10.0 mi Calm Calm - N/A   Clear
2:04 AM 26.6 °F 21.2 °F 10.4 °F 51% 30.07 in 10.0 mi SW 4.6 mph - N/A   Clear
2:23 AM 26.6 °F 20.0 °F 10.4 °F 51% 30.06 in 10.0 mi SSW 5.8 mph - N/A   Clear
2:43 AM 26.6 °F 21.2 °F 10.4 °F 51% 30.05 in 10.0 mi SSW 4.6 mph - N/A   Clear
3:04 AM 26.6 °F - 10.4 °F 51% 30.06 in 10.0 mi Calm Calm - N/A   Clear
3:24 AM 26.6 °F - 12.2 °F 55% 30.04 in 10.0 mi Calm Calm - N/A   Clear
3:44 AM 26.6 °F 22.6 °F 12.2 °F 55% 30.05 in 10.0 mi SSW 3.5 mph - N/A   Clear
4:04 AM 26.6 °F 22.6 °F 12.2 °F 55% 30.06 in 10.0 mi South 3.5 mph - N/A   Clear
4:24 AM 26.6 °F 22.6 °F 12.2 °F 55% 30.06 in 10.0 mi SSW 3.5 mph - N/A   Clear
4:43 AM 26.6 °F - 12.2 °F 55% 30.06 in 10.0 mi Calm Calm - N/A   Clear
5:04 AM 24.8 °F - 14.0 °F 64% 30.06 in 10.0 mi Calm Calm - N/A   Clear
5:24 AM 26.6 °F - 12.2 °F 55% 30.07 in 10.0 mi Calm Calm - N/A   Clear
5:44 AM 26.6 °F 22.6 °F 12.2 °F 55% 30.08 in 10.0 mi SW 3.5 mph - N/A   Clear
6:04 AM 24.8 °F - 14.0 °F 64% 30.07 in 10.0 mi Calm Calm - N/A   Clear
6:24 AM 23.0 °F - 12.2 °F 63% 30.08 in 10.0 mi Calm Calm - N/A   Clear
6:44 AM 24.8 °F 20.5 °F 12.2 °F 59% 30.08 in 10.0 mi SW 3.5 mph - N/A   Clear
7:04 AM 24.8 °F 20.5 °F 12.2 °F 59% 30.08 in 10.0 mi SSW 3.5 mph - N/A   Clear
7:24 AM 24.8 °F - 12.2 °F 59% 30.09 in 10.0 mi Calm Calm - N/A   Clear
7:44 AM 24.8 °F 20.5 °F 12.2 °F 59% 30.09 in 10.0 mi SSW 3.5 mph - N/A   Clear
8:04 AM 26.6 °F 21.2 °F 12.2 °F 55% 30.11 in 10.0 mi SW 4.6 mph - N/A   Clear
8:24 AM 26.6 °F 22.6 °F 12.2 °F 55% 30.11 in 10.0 mi SW 3.5 mph - N/A   Clear
8:44 AM 24.8 °F - 14.0 °F 64% 30.12 in 10.0 mi Calm Calm - N/A   Clear
9:04 AM 26.6 °F - 15.8 °F 64% 30.13 in 10.0 mi Calm Calm - N/A   Clear
9:24 AM 28.4 °F - 14.0 °F 55% 30.14 in 10.0 mi Calm Calm - N/A   Clear
9:44 AM 28.4 °F - 15.8 °F 59% 30.15 in 10.0 mi Calm Calm - N/A   Clear
10:04 AM 32.0 °F - 14.0 °F 48% 30.14 in 10.0 mi Calm Calm - N/A   Clear
10:24 AM 32.0 °F - 14.0 °F 48% 30.15 in 10.0 mi Calm Calm - N/A   Clear
10:44 AM 32.0 °F - 17.6 °F 55% 30.15 in 10.0 mi Calm Calm - N/A   Clear
11:03 AM 32.0 °F - 17.6 °F 55% 30.15 in 10.0 mi Calm Calm - N/A   Clear
11:24 AM 32.0 °F - 17.6 °F 55% 30.15 in 10.0 mi Calm Calm - N/A   Clear
11:43 AM 33.8 °F 30.8 °F 19.4 °F 56% 30.15 in 10.0 mi SW 3.5 mph - N/A   Clear
12:04 PM 33.8 °F - 17.6 °F 52% 30.16 in 10.0 mi Calm Calm - N/A   Clear
12:24 PM 35.6 °F 32.8 °F 17.6 °F 48% 30.15 in 10.0 mi SW 3.5 mph - N/A   Clear
12:44 PM 35.6 °F - 17.6 °F 48% 30.14 in 10.0 mi Calm Calm - N/A   Clear
1:04 PM 35.6 °F - 17.6 °F 48% 30.15 in 10.0 mi Calm Calm - N/A   Clear
1:24 PM 35.6 °F - 17.6 °F 48% 30.14 in 10.0 mi Calm Calm - N/A   Clear
1:44 PM 35.6 °F - 17.6 °F 48% 30.13 in 10.0 mi Calm Calm - N/A   Clear
2:04 PM 35.6 °F - 15.8 °F 44% 30.14 in 10.0 mi Calm Calm - N/A   Clear
2:24 PM 35.6 °F 32.8 °F 17.6 °F 48% 30.14 in 10.0 mi SW 3.5 mph - N/A   Clear
2:43 PM 33.8 °F - 17.6 °F 52% 30.13 in 10.0 mi Calm Calm - N/A   Clear
3:04 PM 33.8 °F 30.8 °F 15.8 °F 48% 30.13 in 10.0 mi SSW 3.5 mph - N/A   Clear
3:23 PM 33.8 °F - 17.6 °F 52% 30.13 in 10.0 mi Calm Calm - N/A   Clear
3:44 PM 32.0 °F 28.7 °F 15.8 °F 51% 30.13 in 10.0 mi SSW 3.5 mph - N/A   Scattered Clouds
4:04 PM 32.0 °F 28.7 °F 14.0 °F 48% 30.13 in 10.0 mi SSW 3.5 mph - N/A   Mostly Cloudy
4:24 PM 32.0 °F 28.7 °F 14.0 °F 48% 30.13 in 10.0 mi South 3.5 mph - N/A   Overcast
4:44 PM 32.0 °F 28.7 °F 14.0 °F 48% 30.12 in 10.0 mi SSW 3.5 mph - N/A   Overcast
5:03 PM 32.0 °F - 12.2 °F 44% 30.13 in 10.0 mi Calm Calm - N/A   Overcast
5:24 PM 32.0 °F - 12.2 °F 44% 30.13 in 10.0 mi Calm Calm - N/A   Overcast
5:44 PM 30.2 °F 26.7 °F 12.2 °F 47% 30.13 in 10.0 mi SSW 3.5 mph - N/A   Overcast
6:03 PM 30.2 °F - 12.2 °F 47% 30.13 in 10.0 mi Calm Calm - N/A   Overcast
6:24 PM 30.2 °F 26.7 °F 12.2 °F 47% 30.14 in 10.0 mi SSW 3.5 mph - N/A   Overcast
6:44 PM 30.2 °F - 12.2 °F 47% 30.14 in 10.0 mi Calm Calm - N/A   Overcast
7:04 PM 30.2 °F - 12.2 °F 47% 30.14 in 10.0 mi Calm Calm - N/A   Overcast
7:24 PM 30.2 °F - 10.4 °F 44% 30.14 in 10.0 mi Calm Calm - N/A   Overcast
7:44 PM 30.2 °F - 10.4 °F 44% 30.13 in 10.0 mi Calm Calm - N/A   Overcast
8:04 PM 30.2 °F 26.7 °F 10.4 °F 44% 30.13 in 10.0 mi SSW 3.5 mph - N/A   Overcast
8:24 PM 30.2 °F 26.7 °F 8.6 °F 40% 30.13 in 10.0 mi SSW 3.5 mph - N/A   Overcast
8:43 PM 30.2 °F 26.7 °F 8.6 °F 40% 30.12 in 10.0 mi SSW 3.5 mph - N/A   Overcast
9:04 PM 30.2 °F 25.4 °F 8.6 °F 40% 30.12 in 10.0 mi SW 4.6 mph - N/A   Overcast
9:23 PM 28.4 °F 24.6 °F 15.8 °F 59% 30.12 in 10.0 mi SSW 3.5 mph - N/A   Overcast
9:44 PM 28.4 °F - 10.4 °F 47% 30.12 in 10.0 mi Calm Calm - N/A   Mostly Cloudy
10:04 PM 28.4 °F - 10.4 °F 47% 30.12 in 10.0 mi Calm Calm - N/A   Scattered Clouds
10:23 PM 28.4 °F 24.6 °F 12.2 °F 51% 30.11 in 10.0 mi SSW 3.5 mph - N/A   Scattered Clouds
10:43 PM 28.4 °F - 10.4 °F 47% 30.11 in 10.0 mi Calm Calm - N/A   Mostly Cloudy
11:04 PM 30.2 °F - 10.4 °F 44% 30.11 in 10.0 mi Calm Calm - N/A   Overcast
11:24 PM 30.2 °F - 12.2 °F 47% 30.11 in 10.0 mi Calm Calm - N/A   Overcast
11:44 PM 28.4 °F - 14.0 °F 55% 30.10 in 10.0 mi Calm Calm - N/A   Overcast